Location: ??????????
(41.2581°N, 22.8006°E)
Time: 03:16:57
(UTC+00:00)

Cosmos 1602 Rocket - Pass Details

Date: 13 December 2025
Orbit: 596 x 626 km, 82.5° (Epoch: 12 January)

Event Time Altitude Azimuth Distance (km) Brightness Sun altitude
Rises 15:41:22 0° 349° (N) 2,890 6.9 -7.7°
Reaches altitude 10° 15:43:36 10° 347° (NNW) 1,975 6.0 -8.1°
Maximum altitude 15:47:57 69° 265° (W) 654 3.9 -8.9°
Drops below altitude 10° 15:52:13 10° 182° (S) 1,941 6.4 -9.6°
Sets 15:54:24 0° 180° (S) 2,836 7.3 -10.0°
